SERVIS 2 DEB, 43394

Orbit data source: Space-Track

SERVIS 2 DEB, 43394 is space debris in SSO originally from a launch on Wed, 02 Jun 2010 UTC launched from the Plesetsk Missile And Space Complex (PKMTR). Debris objects in space refer to the collection of defunct objects orbiting the Earth. Examples of debris include non-operational satellites, rocket bodies, and fragments generated from explosions, collisions, or faulty payload assembly.

Loading next visibility...
Identifier
43394, 2010-023D
Orbit
SSO
Last TLE update
6 days ago
Origin
Manufacturer
MELCO
Mission
Spacecraft
Bus & Motor
Unknown
Mass
Unknown
Launch date (UTC)
2010-06-02 (15 years ago)
Launch vehicle
Unknown
Launch site
Plesetsk Missile And Space Complex (PKMTR)
Object type
Payload
Rocket body
Debris
Shape & HBR
Unknown
Radar Cross Section
Small (<0.1 m²)

Expand to show TLE details & history

TLE from 6 days ago
0 SERVIS 2 DEB
1 43394U 10023D   25194.21561048  .00001929  00000-0  28353-2 0  9991
2 43394 100.5102 196.4677 0040839  72.5403 288.0190 13.55491129 51676
Epoch: 2025-07-13T05:10Z
TLE epoch observation values (Epoch: 2025-07-13T05:10:28.745Z)
Latitude
0.00001°
Longitude
-172.4941°
Altitude
1,045.612 km
Speed
7.334 km/s
True Right ascension
13h 05m 52s
True Declination
0° 00' 00"
Sunlit
Object was in daylight at epoch
Visualization orbit readout
Latitude
59.7785°
Longitude
175.17123°
Altitude
1,031.777 km
Speed
7.357 km/s
Apparent Right ascension
00h 58m 01s
Apparent Declination
63° 01' 00"
Sunlit
Object is in daylight
Visualization observer readout
Local Sidereal Time
12:26:26
Azimuth
356.33° N
Elevation
13.127°
Doppler factor
1
Orbital elements
Apogee altitude
1,079.795 km
Perigee altitude
1,019.128 km
Semi-major axis
7,427.598 km
Eccentricity
0.00408
Inclination
100.5102°
RAAN
196.4677°
Arg. of periapsis
72.5403°
True anomaly
287.57327°
Mean anomaly
288.019°
Eccentric anomaly
287.79621°
Mean motion
3.39055 °/min
Orbital period
106.18 mins
BSTAR
0.0028353
Loading maneuver chart data...
Loading SW <> Apogee altitude chart data...
Loading historical data...
Loading historical data...
Loading historical data...
Loading historical data...
Loading historical data...
Loading historical data...
Loading historical data...
Other satellites on launch #23 in the year 2010 (2010-06-02 UTC)
|